Miscellaneous Local Product
Issued by NWS Hastings, NE

Home | Current Version | Previous Version | Graphics & Text | Print | Product List | Glossary On
Versions: 1 2 3 4 5 6 7 8 9 10 11 12 13 14 15 16 17 18 19 20 21 22 23 24 25 26 27 28 29 30 31 32 33 34 35 36 37 38 39 40 41 42 43 44 45 46 47 48 49 50
000
AXUS43 KGID 221902
MISGRI

GID CWA HOURLY WEATHER ROUNDUP
NATIONAL WEATHER SERVICE HASTINGS NE
200 PM CDT WED OCT 22 2014

NOTE: "FAIR" INDICATES FEW OR NO CLOUDS BELOW 12,000 FEET WITH NO
SIGNIFICANT WEATHER AND/OR OBSTRUCTIONS TO VISIBILITY.

...SOUTH CENTRAL NEBRASKA...

CITY           SKY/WX    TMP DP  RH WIND       PRES   REMARKS
GRAND ISLAND   LGT RAIN  65  58  78 W12       30.00S
HASTINGS       LGT RAIN  69  53  56 W15       29.99F
KEARNEY        CLOUDY    63  57  82 S12       30.02S
ORD            LGT RAIN  63  54  72 W8        29.99S
YORK           PTSUNNY   77  52  41 S20G29    29.98F
AURORA         PTSUNNY   77  50  38 S10G24    29.97F
LEXINGTON      RAIN      61  56  84 CALM      29.99F
HOLDREGE       CLOUDY    61  57  88 CALM      30.01S
HEBRON         SUNNY     78  49  36 S20G29    30.00F

...NEBRASKA PANHANDLE...

CITY           SKY/WX    TMP DP  RH WIND       PRES   REMARKS
CHADRON        SUNNY     62  34  35 VRB7      30.03F
ALLIANCE       SUNNY     63  33  32 NW15      30.05F
SCOTTSBLUFF    SUNNY     64  31  28 NW10G23   30.07F
SIDNEY         SUNNY     64  35  34 N13G24    30.07F

...WESTERN AND NORTH CENTRAL NEBRASKA...

CITY           SKY/WX    TMP DP  RH WIND       PRES   REMARKS
VALENTINE      MOSUNNY   62  45  53 NW12      30.01F
AINSWORTH      CLOUDY    56  50  78 NW7       30.02S
ONEILL         RAIN      56  53  88 CALM      29.99S
BROKEN BOW     LGT RAIN  59  56  89 N5        29.99F
IMPERIAL       MOSUNNY   70  49  47 N9        30.03F
NORTH PLATTE   CLOUDY    64  53  67 CALM      30.02F
MCCOOK         CLOUDY    66  51  58 CALM      30.00F

...EASTERN NEBRASKA...

CITY           SKY/WX    TMP DP  RH WIND       PRES   REMARKS
NORFOLK        CLOUDY    76  53  44 S14G25    29.95F
SO SIOUX CITY  MOSUNNY   73  51  46 SE14G23   29.99F
TEKAMAH        MOSUNNY   74  54  49 S23       30.01F
COLUMBUS       PTSUNNY   75  52  43 S20G30    29.99F
ALBION         LGT RAIN  67  56  66 SW8       29.98F
OMAHA EPPLEY   MOSUNNY   73  51  46 S22       30.04F
OFFUTT AFB     SUNNY     72  54  51 SE16      30.04F
MILLARD        SUNNY     72  54  52 SE14      30.04F
LINCOLN        MOSUNNY   77  53  43 S20       30.00F
NEBRASKA CITY  SUNNY     73  48  41 S17       30.06F
BEATRICE       MOSUNNY   77  54  45 S22G36    30.02F
FALLS CITY     LGT RAIN  74  55  51 S13       30.07F

...NORTHERN KANSAS...

CITY           SKY/WX    TMP DP  RH WIND       PRES   REMARKS
GOODLAND       SUNNY     72  46  39 N16       30.04F
HILL CITY      CLOUDY    73  56  54 S14G20    29.99F
NORTON         CLOUDY    63  54  72 S7        29.98F
PHILLIPSBURG   LGT RAIN  66  63  88 S7        29.98F
SMITH CENTER   LGT RAIN  72  55  56 S18       29.99F
BELOIT         SUNNY     81  52  36 S22G31    29.98F
HAYS           CLOUDY    70  55  60 S21G29    29.99F
RUSSELL        CLOUDY    75  53  46 S20G31    29.99F
CONCORDIA      SUNNY     77  54  44 S26G33    30.01F
SALINA         SUNNY     79  53  40 S21G33    30.04F
TOPEKA         SUNNY     77  58  51 S9        30.10F



USA.gov is the U.S. government's official web portal to all federal, state and local government web resources and services.